Location: LDNL
(36.4545°S, 141.6685°E)
Time: 04:42:28
(UTC+11:00)

Vanguard 2 - Pass Details

Date: 18 August 2022
Orbit: 552 x 2934 km, 32.9° (Epoch: 06 October)

Event Time Altitude Azimuth Distance (km) Brightness Sun altitude
Rises 18:44:11 0° 269° (W) 6,782 14.4 -9.1°
Reaches altitude 10° 18:48:54 10° 270° (W) 5,679 13.5 -10.0°
Maximum altitude 19:05:40 74° 350° (N) 2,322 9.9 -13.4°
Enters shadow 19:15:18 15° 72° (ENE) 3,531 10.3 -15.3°
Drops below altitude 10° 19:16:29 10° 73° (ENE) 3,841 - -15.5°
Sets 19:19:03 0° 75° (ENE) 4,556 - -16.0°
